Wind_Speed
116 118 119 120 120 122 122 123 122 121 120 118 117 116 116 115 113 112 111 112 112 112 111 110 109 109 108 109 109 107 105 103 101 101 101 101 101 102 103 104 103 102
119 118 119 120 121 121 122 123 124 124 123 122 121 119 118 118 117 116 115 114 113 114 114 113 112 112 112 112 112 112 111 109 106 105 104 104 104 105 106 107 106 105
124 121 120 121 122 123 122 122 123 124 125 125 124 123 122 121 119 119 118 117 116 116 116 116 116 115 115 115 115 116 117 116 113 111 109 107 107 107 108 109 108 108
131 127 124 123 124 125 125 124 124 124 124 125 126 126 125 124 123 122 121 121 120 120 119 118 118 118 118 118 118 119 120 120 119 117 115 113 111 111 111 111 111 110
138 135 130 127 126 126 127 127 127 126 125 125 126 126 127 127 127 126 125 123 123 123 122 122 121 121 121 121 121 121 122 122 123 122 120 118 117 116 116 115 114 114
146 143 138 134 130 129 128 128 129 129 128 128 127 127 127 128 128 128 128 128 126 125 125 125 125 125 125 124 124 123 124 124 124 124 124 123 121 121 121 120 119 118
151 149 147 142 137 134 132 131 130 130 130 130 130 129 129 129 129 129 129 129 129 129 128 128 128 128 128 128 128 127 126 126 126 126 125 125 125 124 124 124 123 122
155 154 153 151 146 142 138 136 134 133 132 132 132 132 131 131 131 130 130 130 130 130 130 131 131 131 131 131 131 131 131 130 129 128 127 127 126 126 126 126 125 125
159 158 157 156 155 151 146 142 140 138 136 135 134 134 134 133 133 133 132 132 131 131 131 131 131 132 132 132 133 133 133 133 133 132 131 130 130 129 128 128 127 127
162 162 161 160 159 158 154 150 146 143 142 140 139 137 137 136 136 135 135 134 133 133 133 133 132 132 132 132 133 133 134 134 134 134 134 134 134 133 132 132 132 131
162 163 164 163 163 162 160 158 154 150 147 145 144 143 141 139 138 138 137 136 136 135 135 136 136 135 134 133 132 132 133 134 134 135 135 136 136 136 135 136 136 136
159 161 163 165 165 165 164 163 160 157 153 150 149 148 147 144 142 141 141 140 139 138 137 137 137 137 138 137 136 135 134 133 133 134 135 136 136 136 137 137 137 138
158 159 160 163 165 167 168 167 166 163 160 156 153 152 151 150 148 146 144 143 143 142 141 140 139 139 139 139 139 139 138 137 136 135 134 134 135 136 137 138 139 139
158 158 159 160 162 165 168 170 170 169 166 163 160 157 155 154 153 151 149 148 147 146 144 144 143 142 142 141 140 140 141 141 141 140 140 138 137 136 136 137 138 139
157 158 159 159 160 162 164 168 171 172 171 169 166 163 160 158 157 156 154 153 151 150 149 148 147 146 146 145 144 143 142 142 142 143 143 143 143 142 140 140 139 139
155 156 158 159 160 160 162 164 167 171 173 173 171 169 166 163 161 160 159 157 156 155 154 153 152 151 150 149 148 148 147 146 145 144 144 144 145 146 146 146 145 144
155 156 157 157 158 159 161 162 163 166 170 173 174 173 171 169 166 164 163 162 161 159 158 157 156 156 155 153 153 152 151 151 150 149 148 147 147 147 147 148 148 149
154 155 156 157 157 158 159 160 162 163 165 169 172 174 175 174 172 170 168 166 165 164 163 162 161 160 159 158 157 157 156 155 155 154 153 153 152 151 150 150 149 149
153 154 155 156 157 158 158 159 160 161 162 165 168 171 174 175 175 174 172 170 169 168 167 166 165 164 164 163 162 161 160 160 159 158 158 157 157 156 156 155 154 153
152 152 154 155 156 157 158 158 159 159 160 162 164 166 169 172 174 175 175 174 172 171 170 170 169 169 168 167 166 165 165 164 163 163 162 162 161 161 161 161 160 159
152 152 153 154 155 156 157 158 159 159 160 160 161 163 165 168 171 173 174 175 174 173 172 172 172 172 172 171 171 170 169 169 168 167 166 166 165 165 165 165 164 163
153 153 153 153 154 155 156 157 158 159 159 160 161 162 163 164 166 168 171 173 174 175 175 174 173 173 173 174 174 174 174 173 172 172 171 170 170 169 169 169 168 167
154 154 154 154 154 155 155 156 156 157 158 160 160 161 162 163 164 165 166 168 170 172 174 175 175 175 175 175 175 176 177 177 177 177 176 175 174 174 173 173 172 171
155 155 155 155 155 155 156 156 156 157 157 158 159 160 162 163 164 164 165 166 167 168 169 172 174 175 176 176 176 177 178 178 179 180 180 180 179 178 178 178 177 176
154 155 155 155 155 156 156 157 157 157 157 157 158 159 160 162 163 164 164 165 165 166 166 167 169 171 173 175 177 177 178 179 180 180 181 182 183 182 182 182 182 181
153 154 154 154 155 156 156 157 157 157 158 158 158 158 159 160 161 162 163 164 164 165 166 166 167 168 169 170 172 174 175 177 178 179 180 182 183 184 185 185 185 185
Wind_Direction
239 239 240 240 241 241 241 241 241 240 241 241 241 242 242 241 241 242 244 245 246 247 247 247 248 249 250 252 253 253 252 250 249 248 249 249 251 252 253 254 254 255
237 239 240 241 241 241 242 242 242 242 241 241 241 242 242 242 242 242 242 244 245 247 248 248 248 248 249 251 252 253 253 253 252 252 252 251 251 252 253 254 255 255
235 237 239 240 241 242 242 242 243 243 243 243 242 242 242 242 243 243 243 243 243 245 247 248 248 248 249 249 250 252 253 253 253 253 254 255 255 255 255 256 256 257
235 235 237 238 240 241 242 242 242 242 244 244 244 243 242 242 242 243 243 243 243 243 244 246 248 249 249 249 250 250 252 253 254 254 254 255 256 256 257 258 258 259
235 235 236 236 238 239 241 242 242 242 242 243 244 245 244 244 243 243 243 244 244 244 244 245 245 247 248 250 250 251 252 253 254 254 254 254 255 256 257 258 259 260
237 236 236 236 237 238 239 241 242 243 242 243 243 244 245 245 245 245 245 244 244 244 245 245 245 246 246 248 249 250 252 253 254 254 255 255 255 255 256 257 258 259
238 238 237 237 237 237 237 238 240 242 243 243 243 243 244 245 246 246 246 246 246 246 245 246 246 246 247 247 247 248 249 251 252 254 255 255 256 256 256 257 257 258
238 238 239 239 238 237 237 238 238 239 241 242 243 243 244 244 245 245 246 247 247 247 247 247 247 247 247 248 248 248 249 249 250 251 252 254 255 256 257 257 258 258
238 238 239 239 240 239 238 238 238 238 239 240 241 242 243 244 244 244 245 246 246 247 247 247 248 248 248 249 249 250 250 250 250 251 251 252 252 253 255 256 257 258
239 239 239 239 240 240 240 239 239 238 239 239 240 241 242 243 244 244 244 245 245 246 247 247 247 248 249 249 250 250 251 251 252 252 253 253 253 253 253 254 255 255
240 240 239 239 240 240 241 241 240 240 239 239 240 240 241 242 243 243 244 244 244 245 246 247 248 248 248 249 250 251 252 252 253 253 254 254 255 255 256 256 255 256
240 240 240 240 240 240 241 241 241 241 240 240 240 240 241 241 242 242 243 244 244 245 245 246 248 248 249 249 249 250 251 252 253 254 254 255 256 256 257 257 258 258
240 240 240 241 240 240 240 241 242 242 242 241 240 240 241 241 241 242 242 243 244 245 245 246 247 248 249 249 250 250 250 251 252 253 254 255 256 257 257 258 259 259
241 241 241 241 241 241 241 241 241 242 243 242 242 241 241 241 241 242 242 243 243 244 245 245 246 247 248 248 250 250 251 251 251 252 252 253 254 255 256 257 258 259
241 241 241 241 241 241 241 241 241 242 243 243 243 243 242 242 242 242 242 243 243 244 244 245 246 246 247 248 248 249 250 251 252 252 253 253 253 254 254 255 256 258
242 242 242 242 242 242 242 242 242 242 243 243 244 244 244 243 243 243 243 243 243 244 244 245 245 246 247 247 248 248 249 250 251 252 253 253 254 254 254 254 255 256
242 242 242 242 242 242 242 242 242 242 243 243 244 244 245 245 245 244 244 244 244 244 244 245 245 246 247 247 248 248 249 249 250 251 251 252 253 254 254 255 255 256
241 242 242 242 242 243 243 243 243 243 243 243 244 244 245 245 246 246 245 245 245 245 245 245 245 246 246 247 248 248 249 249 250 250 251 251 252 253 254 254 255 255
242 242 242 242 243 243 243 243 243 243 243 243 244 244 245 245 246 246 246 246 246 246 246 246 246 246 247 247 247 248 249 249 250 250 251 251 252 252 253 254 254 255
242 242 242 243 243 243 243 243 243 243 243 244 244 244 245 245 246 246 247 247 247 247 247 247 247 247 247 247 248 248 249 249 250 250 251 251 252 253 253 253 254 254
243 243 243 243 243 243 243 244 244 244 244 244 244 244 245 245 245 246 246 247 247 247 248 247 247 247 247 248 248 248 249 250 250 251 251 251 252 253 253 254 254 255
244 244 244 244 244 244 244 244 244 244 244 244 244 245 245 245 245 246 246 247 247 248 248 248 248 248 248 248 248 249 249 250 250 251 251 252 252 253 253 254 254 255
244 244 244 244 244 244 244 244 244 245 245 245 245 245 245 245 246 246 246 246 247 247 248 249 249 249 249 249 249 249 249 250 250 251 252 252 253 253 254 254 255 255
245 245 244 245 245 245 245 245 245 245 245 245 245 246 246 246 246 246 246 246 247 247 247 248 249 249 250 250 250 250 250 250 251 251 252 252 253 253 254 255 255 255
245 245 245 245 245 245 245 246 246 246 246 246 246 246 246 246 247 247 247 247 247 247 247 248 248 249 249 250 251 251 251 251 252 252 252 253 253 253 254 255 255 256
244 245 245 245 245 246 246 246 246 246 246 246 246 247 247 247 247 247 247 247 248 248 248 248 248 249 249 250 250 251 251 252 252 253 253 253 253 254 254 255 255 256
Height
10554 10558 10562 10566 10570 10573 10577 10582 10586 10591 10595 10599 10602 10605 10609 10612 10614 10617 10619 10621 10623 10626 10628 10632 10635 10637 10638 10636 10636 10641 10644 10646 10648 10648 10648 10648 10648 10648 10648 10650 10653 10653
10541 10545 10549 10553 10557 10560 10564 10567 10572 10576 10580 10585 10589 10593 10596 10599 10603 10606 10609 10611 10614 10616 10618 10621 10624 10626 10628 10627 10627 10629 10630 10633 10638 10638 10639 10640 10640 10639 10639 10640 10642 10643
10527 10531 10535 10539 10542 10546 10550 10554 10558 10562 10565 10570 10575 10580 10583 10587 10591 10594 10597 10600 10603 10605 10606 10608 10612 10614 10616 10617 10617 10617 10617 10620 10625 10628 10630 10632 10632 10631 10631 10631 10632 10634
10511 10516 10520 10525 10529 10532 10536 10540 10544 10548 10552 10555 10560 10565 10569 10574 10578 10581 10584 10587 10590 10593 10595 10597 10599 10601 10603 10605 10606 10606 10605 10606 10611 10616 10620 10622 10622 10622 10622 10622 10623 10624
10495 10500 10505 10510 10515 10519 10523 10527 10531 10535 10539 10542 10546 10551 10555 10559 10563 10567 10571 10574 10577 10580 10583 10585 10587 10588 10590 10591 10593 10595 10595 10595 10597 10602 10607 10611 10613 10613 10612 10613 10615 10614
10478 10484 10490 10495 10501 10505 10510 10514 10517 10521 10525 10529 10533 10537 10541 10545 10549 10554 10557 10561 10565 10568 10570 10572 10574 10575 10577 10579 10581 10583 10584 10584 10585 10589 10593 10598 10601 10602 10601 10603 10605 10605
10462 10468 10474 10479 10486 10491 10496 10500 10504 10508 10511 10515 10519 10524 10528 10532 10536 10540 10544 10547 10551 10554 10557 10559 10561 10563 10564 10566 10568 10570 10572 10573 10575 10577 10580 10583 10587 10589 10590 10591 10594 10595
10447 10452 10457 10462 10469 10475 10480 10485 10489 10494 10497 10501 10505 10509 10513 10518 10522 10526 10530 10533 10537 10540 10543 10545 10548 10550 10552 10553 10554 10557 10559 10562 10564 10566 10568 10570 10573 10575 10578 10579 10581 10582
10430 10435 10441 10445 10450 10457 10463 10469 10474 10479 10483 10487 10490 10494 10498 10503 10507 10511 10515 10519 10523 10526 10528 10530 10533 10536 10538 10540 10542 10544 10546 10549 10552 10554 10556 10559 10561 10563 10565 10567 10568 10569
10412 10418 10424 10429 10434 10439 10445 10452 10458 10463 10468 10472 10476 10480 10484 10488 10492 10496 10500 10504 10508 10511 10514 10516 10519 10522 10524 10526 10528 10530 10533 10535 10538 10541 10543 10545 10547 10550 10553 10555 10556 10557
10395 10401 10407 10412 10417 10422 10427 10434 10440 10446 10452 10457 10461 10465 10469 10473 10477 10481 10485 10489 10493 10496 10499 10502 10504 10508 10511 10513 10515 10516 10519 10521 10524 10527 10529 10531 10533 10536 10538 10540 10542 10543
10378 10383 10389 10395 10400 10405 10410 10416 10422 10428 10435 10440 10445 10449 10453 10457 10462 10466 10470 10475 10478 10482 10485 10488 10490 10494 10496 10499 10501 10504 10506 10508 10510 10512 10514 10516 10518 10521 10523 10524 10525 10527
10360 10366 10371 10377 10382 10388 10393 10398 10404 10410 10417 10423 10429 10433 10437 10442 10446 10450 10455 10459 10464 10467 10471 10474 10476 10479 10482 10484 10487 10489 10492 10495 10497 10499 10500 10502 10504 10507 10509 10509 10509 10511
10341 10348 10354 10359 10365 10370 10376 10382 10387 10393 10399 10405 10411 10417 10422 10426 10430 10434 10439 10443 10448 10452 10456 10459 10462 10464 10467 10470 10472 10474 10477 10480 10483 10485 10487 10489 10491 10493 10495 10495 10495 10497
10323 10329 10336 10342 10348 10353 10359 10365 10370 10376 10382 10387 10393 10399 10405 10409 10414 10418 10422 10427 10431 10436 10440 10443 10446 10449 10452 10455 10457 10460 10462 10465 10467 10469 10472 10474 10476 10479 10481 10481 10481 10483
10305 10311 10317 10323 10330 10336 10342 10348 10354 10359 10364 10369 10374 10380 10386 10392 10397 10402 10406 10410 10414 10419 10423 10427 10430 10433 10436 10439 10442 10444 10447 10449 10451 10453 10456 10458 10460 10462 10464 10466 10468 10470
10287 10292 10298 10304 10310 10317 10323 10329 10336 10342 10347 10351 10356 10361 10367 10373 10379 10384 10389 10393 10397 10402 10406 10410 10413 10416 10419 10422 10426 10428 10430 10433 10435 10438 10440 10442 10443 10445 10447 10449 10452 10455
10268 10274 10279 10284 10291 10298 10304 10310 10317 10323 10328 10333 10337 10342 10348 10354 10359 10365 10370 10375 10380 10384 10388 10393 10396 10399 10402 10405 10408 10411 10414 10416 10418 10421 10424 10425 10426 10429 10430 10432 10434 10438
10250 10256 10260 10265 10271 10278 10285 10291 10297 10304 10309 10314 10318 10323 10329 10334 10340 10345 10351 10357 10362 10366 10370 10374 10378 10381 10384 10387 10390 10393 10396 10399 10402 10404 10406 10407 10409 10412 10413 10415 10417 10421
10231 10238 10243 10247 10252 10259 10265 10271 10277 10284 10290 10294 10299 10304 10309 10314 10320 10325 10331 10337 10342 10347 10351 10355 10359 10362 10366 10369 10373 10376 10378 10380 10383 10386 10388 10390 10391 10393 10395 10397 10400 10403
10213 10219 10225 10229 10234 10239 10246 10251 10257 10264 10270 10275 10279 10284 10289 10294 10299 10306 10311 10317 10322 10327 10331 10335 10339 10343 10347 10351 10354 10357 10360 10361 10363 10367 10370 10372 10374 10375 10377 10380 10382 10386
10194 10201 10206 10211 10216 10221 10227 10232 10238 10244 10250 10255 10259 10265 10269 10274 10279 10285 10291 10297 10302 10307 10311 10316 10319 10323 10327 10332 10335 10338 10341 10343 10345 10348 10351 10354 10356 10358 10360 10362 10365 10368
10173 10181 10188 10193 10197 10202 10207 10213 10219 10225 10230 10234 10239 10245 10250 10254 10259 10265 10271 10276 10282 10287 10291 10296 10299 10303 10307 10311 10315 10318 10321 10324 10328 10330 10332 10335 10338 10341 10342 10343 10346 10350
10152 10160 10168 10174 10178 10183 10188 10193 10199 10205 10210 10214 10220 10225 10230 10233 10239 10245 10251 10256 10262 10268 10272 10276 10279 10283 10287 10290 10294 10299 10303 10306 10309 10312 10314 10316 10319 10323 10325 10324 10325 10330
10132 10139 10147 10154 10159 10163 10168 10173 10179 10185 10190 10195 10201 10206 10210 10213 10219 10225 10232 10237 10241 10247 10253 10257 10260 10263 10267 10271 10274 10279 10284 10287 10290 10293 10296 10297 10299 10302 10306 10307 10307 10309
10113 10119 10126 10133 10139 10144 10148 10154 10159 10165 10170 10175 10181 10187 10191 10195 10199 10205 10211 10217 10221 10226 10232 10236 10240 10244 10248 10252 10255 10260 10264 10268 10271 10273 10275 10277 10279 10281 10284 10287 10290 10292